www.pogodaiklimat.ru

Погода и климат >> Архив погоды >> Россия >> город Москва >> Москва


АРХИВ ПОГОДЫ в Москве

Время (UTC), дата Ветер
(напр.,м/с)
 
Видим.   Явления Облачность Т
(С)
Тd
(С)
f
(%)
Тe
(С)
Тes
(С)
Комфортность P
(гПа)
Po
(гПа)
Тmin
(С)
Tmax
(С)
R
(мм)
R24
(мм)
S
(см)
03 16.01 Ю 1 н/о 6/6 600 м
[Sc]
-7.6 -9.8 84 -10 -10 по сезону 1033.2 1012.5 -7.6
06 16.01 ЮВ 1 10 км 10/10 300 м
[Frnb]
-7.5 -9.7 84 -10 -10 по сезону 1032.1 1011.4 -8.1 5
09 16.01 Ю 2 10 км 8/8 600 м
[Sc]
-6.7 -10.1 77 -11 -11 прохладно 1031.4 1010.7
12 16.01 ЮВ 2 10 км 4/4 600 м
[Sc]
-8.1 -11.2 78 -12 -12 прохладно 1029.5 1008.8
15 16.01 ЮВ 2 н/о 10/10 600 м
[Sc]
-8.3 -12.0 75 -13 -13 холодно 1027.6 1006.9
18 16.01 ЮВ 3-10
{10}
н/о слабый снег 10/10 600 м
[Sc]
-8.0 -11.1 78 -14 -14 холодно 1025.7 1005.1 -6.7 0.2
21 16.01 ЮВ 2
{10}
н/о слабый снег 10/10 600 м
[Sc]
-8.2 -10.7 82 -13 -13 прохладно 1024.1 1003.5
00 17.01 ЮВ 2 н/о слабый снег 10/10 600 м
[Sc]
-8.2 -10.4 84 -13 -13 прохладно 1022.1 1001.6
03 17.01 ЮВ 2 н/о слабый снег 10/10 300 м
[Frnb]
-8.2 -9.8 88 -13 -13 прохладно 1020.2 999.7 -8.6 0.7
06 17.01 ЮВ 2 4000 м слабый снег 10/10 300 м
[Frnb]
-7.7 -9.6 86 -12 -12 прохладно 1018.6 998.1 -8.6 0.7 6
09 17.01 ЮВ 2 10 км {снег} 9/9 600 м
[Sc]
-6.7 -9.2 82 -11 -11 прохладно 1017.3 997.0
12 17.01 ЮВ 2 10 км в посл. час ливневой снег 10/10 600 м
[Sc]
-6.8 -9.2 83 -11 -11 прохладно 1015.9 995.6
15 17.01 ЮВ 3 н/о {ливн. осадки} 10/10 600 м
[Sc]
-7.1 -9.5 83 -13 -13 холодно 1014.7 994.4 0.3
18 17.01 ЮВ 3
{10}
н/о 10/10 300 м
[Sc]
-7.1 -10.7 75 -13 -13 прохладно 1013.0 992.7 -6.6 0.3
21 17.01 ЮВ 3
{10}
н/о слабый ливневой снег {метель} 10/10 300 м
[Cb calv]
-9.0 -11.1 85 -15 -15 холодно 1012.3 991.8
00 18.01 ЮВ 2 н/о слабый ливневой снег 10/10 300 м
[Cb calv]
-9.4 -11.9 82 -14 -14 прохладно 1011.3 990.9
03 18.01 ЮВ 2 н/о ливневой снег 10/10 300 м
[Cb calv]
-9.5 -10.8 90 -14 -14 прохладно 1010.3 989.9 -9.5 2
06 18.01 ЮВ 2 1000 м ливневой снег 10/10 600 м
[Cb calv]
-8.8 -10.2 90 -13 -13 прохладно 1010.4 990.0 -9.6 4 12
09 18.01 ЮВ 2 4000 м слабый ливневой снег 10/10 600 м
[Cb cap]
-7.7 -9.1 90 -12 -12 прохладно 1010.5 990.2
12 18.01 Ю 2 4000 м слабый ливневой снег 10/10 600 м
[Cb cap]
-6.6 -8.4 87 -11 -11 прохладно 1010.9 990.7
15 18.01 ЮВ 2 н/о слабый ливневой снег 10/10 300 м
[Cb cap]
-5.7 -7.3 88 -10 -10 по сезону 1011.5 991.3 5
18 18.01 ЮВ 1 н/о в посл. час ливневой снег 10/10 300 м
[Sc]
-4.6 -6.2 89 -7 -7 по сезону 1011.6 991.5 -4.6 4
21 18.01 Ю 3 н/о слабый снег 10/10 300 м
[Frnb Ns]
-3.4 -5.2 87 -9 -9 по сезону 1012.2 992.2
00 19.01 Ю 3 н/о слабый снег 10/10 300 м
[Frnb Ns]
-2.6 -5.1 83 -8 -8 по сезону 1012.3 992.4
03 19.01 ЮВ 2 н/о {снег} 4/0
[Ci fib]
-5.4 -9.6 72 -9 -9 по сезону 1013.0 992.8 -5.4 2
06 19.01 ЮВ 2 10 км {снег} 8/0
[Ac trans]
-7.6 -13.7 62 -12 -12 прохладно 1014.5 994.1 -7.6 1 15
09 19.01 ЮВ 3 10 км 10/0
[As trans Cs]
-8.6 -13.5 68 -14 -14 холодно 1015.8 995.4
12 19.01 ЮВ 2 10 км 10/0
[Ac As Cs]
-8.1 -13.5 65 -12 -12 прохладно 1015.8 995.4
15 19.01 ЮВ 3
{11}
н/о позёмок {метель} 10/0
[Ac und]
-8.3 -16.0 54 -14 -14 холодно 1016.7 996.2
18 19.01 ЮВ 3
{11}
н/о позёмок {метель} 9/9 1000 м
[Sc]
-7.8 -16.3 50 -13 -13 прохладно 1016.0 995.6 -7.6
21 19.01 ЮВ 3
{11}
н/о {метель} 4/4 1000 м
[Sc]
-8.7 -17.0 51 -14 -14 прохладно 1016.1 995.6
00 20.01 ЮВ 2 н/о {метель} 10/0
[Ac As]
-9.6 -16.1 59 -14 -14 холодно 1015.4 994.8
03 20.01 ЮВ 1 н/о слабый снег 10/0
[As op]
-10.7 -12.9 84 -13 -13 холодно 1014.5 993.9 -10.7 0.9
06 20.01 ЮВ 2 4000 м слабый снег 10/0
[As op]
-10.4 -12.5 85 -15 -15 холодно 1013.6 993.1 -10.7 2 15
09 20.01 ЮВ 2 4000 м слабый снег 10/0
[As op]
-9.2 -11.7 82 -14 -13 холодно 1013.1 992.6
12 20.01 ЮВ 1 2000 м снег 10/0
[As op]
-8.1 -9.8 88 -10 -10 прохладно 1011.8 991.5
15 20.01 ЮВ 1 н/о слабый снег 10/0
[As op]
-8.1 -9.7 88 -10 -10 прохладно 1011.3 991.0 5
18 20.01 ЮВ 2 н/о слабый снег 10/4 1000 м
[Sc As op]
-7.9 -9.9 86 -12 -12 прохладно 1010.9 990.6 -7.9 4
21 20.01 ЮВ 1 н/о снег 10/3 600 м
[Sc As op]
-7.9 -9.4 89 -10 -10 прохладно 1010.7 990.4
00 21.01 В 1 н/о слабый снег 10/4 600 м
[Sc As op]
-7.5 -8.9 90 -10 -10 по сезону 1010.3 990.0
03 21.01 ЮВ 1 н/о слабый снег 10/5 300 м
[Frnb As op]
-6.8 -8.1 90 -9 -9 по сезону 1010.1 989.9 -8.2 3
06 21.01 штиль 0 4000 м слабый снег 10/10 300 м
[Frnb]
-5.3 -6.4 92 -6 -6 по сезону 1010.3 990.2 -8.0 3 9
09 21.01 ЮВ 1 4000 м слабый снег 10/9 200 м
[Frnb As op]
-2.1 -3.5 90 -4 -4 по сезону 1010.3 990.4
12 21.01 Ю 1 4000 м слабый снег 10/10 300 м
[Frnb Ns]
-2.2 -4.0 87 -4 -4 по сезону 1010.2 990.3
15 21.01 ЮВ 1 н/о слабый снег 10/10 300 м
[Frnb Ns]
-2.5 -3.9 90 -5 -5 по сезону 1010.1 990.2 0.9
18 21.01 С 1 н/о слабый снег 10/10 300 м
[Frnb Ns]
-2.7 -3.9 91 -5 -5 по сезону 1009.4 989.5 -2.1 0.7
21 21.01 З 1 н/о слабый снег 10/10 300 м
[Frnb Ns]
-5.1 -6.5 90 -8 -8 по сезону 1009.9 989.8
00 22.01 З 1 н/о слабый снег 10/5 600 м
[Sc As op]
-7.1 -9.2 85 -9 -9 по сезону 1011.0 990.7
03 22.01 З 2 н/о слабый снег 10/8 600 м
[Sc As op]
-8.9 -11.1 84 -13 -13 прохладно 1013.4 993.0 -8.9 1
06 22.01 З 1 4000 м дымка {снег} 9/9 600 м
[Sc]
-10.0 -11.5 89 -12 -12 по сезону 1014.9 994.3 -11.2 0.8 22
09 22.01 З 1 4000 м слабый снег 9/9 600 м
[Sc]
-8.3 -11.1 80 -11 -10 по сезону 1016.3 995.8
12 22.01 З 1 10 км слабый снег 8/8 600 м
[Sc]
-7.7 -11.0 77 -10 -10 по сезону 1018.3 997.9
15 22.01 З 1 н/о {снег} 3/3 1000 м
[Sc]
-10.5 -12.4 86 -13 -13 прохладно 1020.6 999.9 0.3
18 22.01 З 1 н/о {снег} ясно -9.6 -11.5 86 -12 -12 по сезону 1021.6 1001.0 -7.5 0.3
21 22.01 штиль 0 н/о дымка ясно -11.2 -12.3 92 -11 -11 по сезону 1022.7 1001.9
00 23.01 штиль 0 н/о дымка ясно -12.1 -13.2 91 -12 -12 по сезону 1024.0 1003.1

 

Местоположение метеостанции Москва (город Москва, Россия): широта 55.83 долгота 37.62 высота над уровнем моря 156 м.

В архиве по умолчанию представлена погода в Москве за последнюю неделю. Архивные данные за месяц целиком и за предыдущие месяцы, начиная с января 2011 года, Вы можете получить, выбрав интересующий диапазон дат из раскрывающегося списка и нажав кнопку "Ввод!".

Внимание! Время в таблицах - всемирное. Для получения местного времени необходимо прибавить поправку, которая в Москве равна 3 ч.

Смотрите также архив погоды в соседних городах и на ближайших метеорологических станциях:

Погода в Москве (Балчуг) (город Москва, Россия) (9 км)
Погода в Москве (Тушино) (город Москва, Россия) (12 км)
Погода в Долгопрудном (Московская область, Россия) (13 км)
Погода в Москве (Строгино) (город Москва, Россия) (14 км)
Погода в Красногорске (Московская область, Россия) (18 км)
Погода в Шереметьево (Московская область, Россия) (20 км)
Погода в Немчиновке (город Москва, Россия) (21 км)
Погода в Железнодорожном АМС (Московская область, Россия) (23 км)
Погода в Луговой (Московская область, Россия) (26 км)
Погода в Пушкино (Московская область, Россия) (26 км)

Пояснения к столбцам:

Ветер - указаны скорость ветра в м/с - средняя за 10 мин, порывы в срок и между сроками (в фигурных скобках) и направление, откуда дует ветер: С - северный, СВ - северо-восточный, В - восточный, ЮВ - юго-восточный, Ю - южный, ЮЗ - юго-западный, З - западный, СЗ - северо-западный.
Видимость - горизонтальная дальность видимости в метрах или километрах. При видимости от 1 до 10 км при отсутствии осадков обычно наблюдается дымка, при ухудшении видимости до 1 км и менее - туман. В сухую погоду видимость может ухудшаться дымом, пылью или мглою.
Явления - указаны атмосферные явления, наблюдавшиеся в срок или в последний час перед сроком; фигурными скобками обозначены явления, наблюдавшиеся между сроками (за 1-3 часа до срока); квадратными скобками обозначены град или гололедные отложения с указанием их диаметра в мм.
Облачность - указаны через наклонную черту общая и нижняя облачность в баллах и высота нижней границы облаков в метрах; квадратными скобками обозначены формы облаков: Ci - перистые, Cs - перисто-слоистые, Cc - перисто-кучевые, Ac - высококучевые, As - высокослоистые, Sc - слоисто-кучевые, Ns - слоисто-дождевые, Cu - кучевые, Cb - кучево-дождевые. Подробнее классификацию облаков см. в Атласе облаков (PDF).
T - Температура воздуха - температура, измеренная на высоте 2 м над землей.
Td - Температура точки росы - температура, при понижении до которой содержащийся в воздухе водяной пар достигнет насыщения.
f - Относительная влажность воздуха - влажноcть воздуха, измеренная на высоте 2 м над землей.
Te - Эффективная температура - температура, которую ощущает одетый по сезону человек в тени. Характеристика душности погоды. При расчете учитывается влияние влажности воздуха и скорости ветра на теплоощущения человека.
Tes - Эффективная температура на солнце - температура, которую ощущает человек, с поправкой на солнечный нагрев. Характеристика знойности погоды. Зависит от высоты солнца над горизонтом, облачности и скорости ветра. Ночью, в пасмурную погоду, а также при ветре 12 м/с и более поправка равна нулю.
P - Атмосферное давление - приведенное к уровню моря атмосферное давление.
Po - Атмосферное давление - измеренное на уровне метеостанции атмосферное давление.
Tmin - Минимальная температура - минимум температуры воздуха на высоте 2 м над землей.
Tmax - Максимальная температура - максимум температуры воздуха на высоте 2 м над землей.
R - Количество осадков - Количество выпавших осадков за период времени, мм. При наведении курсора мыши на число - период времени, за который выпало указанное количество осадков.
R24 - Количество осадков - Количество выпавших осадков за 24 часа, мм.
S - Снежный покров - Высота снежного покрова, см. При наведении курсора мыши на число - состояние снежного покрова и степень покрытия местности в баллах.